| time (UTC) | temp F | wind direction | speed knots | gust knots | rain 1hr in | rain 24hr in | rain mn in | humidity % | barometer mb |
| 20260506091803 | 52 | 13 | 2.6 | 8.7 | 0.00 | 0.00 | 0.00 | 68 | 1008.0 |
| 20260506090903 | 52 | 18 | 2.6 | 7.8 | 0.00 | 0.00 | 0.00 | 68 | 1007.9 |
| 20260506090003 | 51 | 2 | 2.6 | 6.1 | 0.00 | 0.00 | 0.00 | 70 | 1007.9 |
| 20260506085403 | 51 | 2 | 2.6 | 7.0 | 0.00 | 0.00 | 0.00 | 70 | 1007.9 |
| 20260506084503 | 51 | 3 | 2.6 | 7.0 | 0.00 | 0.00 | 0.00 | 70 | 1007.7 |
| 20260506083603 | 51 | 4 | 2.6 | 7.0 | 0.00 | 0.00 | 0.00 | 72 | 1007.7 |
| 20260506082703 | 51 | 15 | 1.7 | 5.2 | 0.00 | 0.00 | 0.00 | 72 | 1007.8 |
| 20260506081803 | 51 | 11 | 2.6 | 6.1 | 0.00 | 0.00 | 0.00 | 72 | 1007.7 |
| 20260506080903 | 51 | 19 | 1.7 | 4.3 | 0.00 | 0.00 | 0.00 | 72 | 1007.7 |
| 20260506072917 | 50 | 12 | 1.7 | 4.3 | 0.00 | 0.00 | 0.00 | 72 | 1007.7 |
| 20260506071803 | 50 | 14 | 1.7 | 7.8 | 0.00 | 0.00 | 0.00 | 74 | 1007.7 |
| 20260506070903 | 50 | 6 | 2.6 | 8.7 | 0.00 | 0.00 | 0.00 | 77 | 1007.6 |
| 20260506070219 | 50 | 21 | 2.6 | 8.7 | 0.00 | 0.00 | 0.00 | 77 | 1007.7 |
| 20260506061803 | 50 | 5 | 1.7 | 6.1 | 0.00 | 0.00 | 0.00 | 81 | 1007.2 |
| 20260506060903 | 50 | 8 | 2.6 | 6.1 | 0.00 | 0.00 | 0.00 | 81 | 1007.1 |
| 20260506060218 | 49 | 7 | 2.6 | 8.7 | 0.00 | 0.00 | 0.00 | 82 | 1007.1 |
| 20260506050903 | 49 | 357 | 2.6 | 6.1 | 0.00 | 0.00 | 0.00 | 83 | 1007.0 |
| 20260506044503 | 49 | 355 | 2.6 | 4.3 | 0.00 | 0.00 | 0.00 | 84 | 1007.1 |
| 20260506043816 | 49 | 5 | 2.6 | 6.1 | 0.00 | 0.00 | 0.00 | 84 | 1007.0 |
| 20260506042703 | 49 | 354 | 2.6 | 6.1 | 0.00 | 0.00 | 0.00 | 84 | 1007.0 |
| 20260506042019 | 49 | 2 | 2.6 | 7.0 | 0.00 | 0.00 | 0.00 | 83 | 1007.0 |
| 20260506040903 | 49 | 2 | 2.6 | 7.8 | 0.00 | 0.00 | 0.00 | 83 | 1007.0 |
| 20260506040003 | 49 | 360 | 2.6 | 4.3 | 0.00 | 0.00 | 0.00 | 83 | 1007.0 |
| 20260506035403 | 49 | 3 | 2.6 | 4.3 | 0.00 | 0.00 | 0.00 | 83 | 1007.0 |
| 20260506034717 | 49 | 2 | 2.6 | 5.2 | 0.00 | 0.00 | 0.00 | 83 | 1007.1 |
| 20260506033816 | 49 | 355 | 1.7 | 5.2 | 0.00 | 0.00 | 0.00 | 83 | 1007.1 |
| 20260506032703 | 49 | 357 | 2.6 | 4.3 | 0.00 | 0.00 | 0.00 | 83 | 1007.2 |
| 20260506031803 | 49 | 2 | 2.6 | 5.2 | 0.00 | 0.00 | 0.00 | 83 | 1007.2 |
| 20260506030903 | 49 | 357 | 2.6 | 5.2 | 0.00 | 0.00 | 0.00 | 83 | 1007.3 |
| 20260506030003 | 49 | 351 | 2.6 | 6.1 | 0.00 | 0.00 | 0.00 | 83 | 1007.5 |
| 20260506025403 | 49 | 350 | 2.6 | 5.2 | 0.00 | 0.00 | 0.00 | 83 | 1007.5 |
| 20260506024503 | 49 | 352 | 1.7 | 4.3 | 0.00 | 0.00 | 0.00 | 83 | 1007.7 |
| 20260506023815 | 49 | 358 | 2.6 | 5.2 | 0.00 | 0.00 | 0.00 | 83 | 1007.6 |
| 20260506022703 | 48 | 2 | 1.7 | 3.5 | 0.00 | 0.00 | 0.00 | 84 | 1007.7 |
| 20260506021803 | 48 | 360 | 1.7 | 3.5 | 0.00 | 0.00 | 0.00 | 84 | 1007.7 |
| 20260506020903 | 48 | 360 | 1.7 | 4.3 | 0.00 | 0.00 | 0.00 | 85 | 1007.7 |
| 20260506020003 | 48 | 6 | 1.7 | 3.5 | 0.00 | 0.00 | 0.00 | 86 | 1007.8 |
| 20260506015403 | 48 | 9 | 1.7 | 2.6 | 0.00 | 0.00 | 0.00 | 86 | 1007.9 |
| 20260506014503 | 48 | 2 | 1.7 | 4.3 | 0.00 | 0.00 | 0.00 | 86 | 1007.9 |
| 20260506013603 | 48 | 2 | 2.6 | 4.3 | 0.00 | 0.00 | 0.00 | 86 | 1008.0 |
| 20260506012919 | 48 | 356 | 1.7 | 4.3 | 0.00 | 0.00 | 0.00 | 86 | 1008.0 |
| 20260506011803 | 48 | 4 | 2.6 | 5.2 | 0.00 | 0.00 | 0.00 | 86 | 1008.1 |
| 20260506010903 | 48 | 359 | 2.6 | 5.2 | 0.00 | 0.00 | 0.00 | 85 | 1008.1 |
| 20260506010003 | 48 | 355 | 3.5 | 7.0 | 0.00 | 0.00 | 0.00 | 84 | 1008.3 |
| 20260506005403 | 48 | 352 | 3.5 | 6.1 | 0.00 | 0.00 | 0.00 | 83 | 1008.3 |
| 20260506004716 | 48 | 356 | 2.6 | 6.1 | 0.00 | 0.00 | 0.00 | 83 | 1008.3 |
| 20260506003603 | 48 | 356 | 2.6 | 6.1 | 0.00 | 0.00 | 0.00 | 82 | 1008.3 |
| 20260506002703 | 49 | 2 | 2.6 | 7.0 | 0.00 | 0.00 | 0.00 | 82 | 1008.3 |
| 20260506001803 | 49 | 1 | 2.6 | 6.1 | 0.00 | 0.00 | 0.00 | 82 | 1008.4 |
| 20260506000903 | 49 | 358 | 2.6 | 7.8 | 0.00 | 0.00 | 0.00 | 82 | 1008.5 |
| 20260506000003 | 49 | 360 | 2.6 | 7.8 | 0.00 | 0.00 | 0.00 | 82 | 1008.5 |
| 20260505235403 | 49 | 6 | 2.6 | 7.8 | 0.00 | 0.00 | 0.00 | 81 | 1008.6 |
| 20260505234503 | 49 | 2 | 3.5 | 7.0 | 0.00 | 0.00 | 0.00 | 80 | 1008.7 |
| 20260505233603 | 49 | 4 | 1.7 | 5.2 | 0.00 | 0.00 | 0.00 | 80 | 1008.8 |
| 20260505232703 | 49 | 6 | 2.6 | 6.1 | 0.00 | 0.00 | 0.00 | 80 | 1008.7 |
| 20260505231803 | 49 | 4 | 3.5 | 11.3 | 0.00 | 0.00 | 0.00 | 81 | 1008.8 |
| 20260505230903 | 49 | 360 | 2.6 | 8.7 | 0.00 | 0.00 | 0.00 | 81 | 1008.8 |
| 20260505230216 | 49 | 2 | 2.6 | 8.7 | 0.00 | 0.00 | 0.00 | 81 | 1008.9 |
| 20260505225403 | 49 | 10 | 2.6 | 7.0 | 0.00 | 0.00 | 0.00 | 80 | 1008.9 |
| 20260505224503 | 49 | 9 | 2.6 | 5.2 | 0.00 | 0.00 | 0.00 | 80 | 1009.0 |
| 20260505223603 | 50 | 7 | 2.6 | 7.0 | 0.00 | 0.00 | 0.00 | 80 | 1009.0 |
| 20260505222703 | 50 | 3 | 2.6 | 11.3 | 0.00 | 0.00 | 0.00 | 80 | 1009.0 |
| 20260505221803 | 50 | 350 | 2.6 | 5.2 | 0.00 | 0.00 | 0.00 | 81 | 1009.1 |
| 20260505220903 | 50 | 2 | 2.6 | 7.0 | 0.00 | 0.00 | 0.00 | 81 | 1009.2 |
| 20260505220003 | 50 | 355 | 1.7 | 5.2 | 0.00 | 0.00 | 0.00 | 81 | 1009.3 |
| 20260505215403 | 50 | 348 | 1.7 | 5.2 | 0.00 | 0.00 | 0.00 | 81 | 1009.2 |
| 20260505214718 | 50 | 2 | 2.6 | 7.0 | 0.00 | 0.00 | 0.00 | 80 | 1009.2 |
| 20260505213603 | 50 | 5 | 1.7 | 4.3 | 0.00 | 0.00 | 0.00 | 80 | 1009.3 |
| 20260505212703 | 50 | 11 | 2.6 | 5.2 | 0.00 | 0.00 | 0.00 | 80 | 1009.2 |
| 20260505211803 | 50 | 2 | 2.6 | 7.0 | 0.00 | 0.00 | 0.00 | 80 | 1009.2 |
| 20260505210903 | 50 | 1 | 3.5 | 10.4 | 0.00 | 0.00 | 0.00 | 80 | 1009.4 |
| 20260505210003 | 50 | 357 | 2.6 | 5.2 | 0.00 | 0.00 | 0.00 | 80 | 1009.4 |
| 20260505205403 | 50 | 360 | 2.6 | 5.2 | 0.00 | 0.00 | 0.00 | 80 | 1009.4 |
| 20260505204503 | 50 | 356 | 2.6 | 5.2 | 0.00 | 0.00 | 0.00 | 80 | 1009.5 |
| 20260505203603 | 50 | 4 | 2.6 | 6.1 | 0.00 | 0.00 | 0.00 | 80 | 1009.5 |
| 20260505202703 | 50 | 3 | 2.6 | 7.8 | 0.00 | 0.00 | 0.00 | 80 | 1009.6 |
| 20260505201803 | 50 | 5 | 2.6 | 6.1 | 0.00 | 0.00 | 0.00 | 80 | 1009.5 |
| 20260505200903 | 50 | 357 | 2.6 | 6.1 | 0.00 | 0.00 | 0.00 | 80 | 1009.5 |
| 20260505200003 | 50 | 6 | 2.6 | 6.1 | 0.00 | 0.00 | 0.00 | 79 | 1009.5 |
| 20260505195403 | 50 | 7 | 1.7 | 6.1 | 0.00 | 0.00 | 0.00 | 79 | 1009.5 |
| 20260505194503 | 51 | 5 | 2.6 | 8.7 | 0.00 | 0.00 | 0.00 | 80 | 1009.5 |
| 20260505193603 | 51 | 3 | 1.7 | 4.3 | 0.00 | 0.00 | 0.00 | 80 | 1009.5 |
| 20260505192703 | 51 | 355 | 1.7 | 6.1 | 0.00 | 0.00 | 0.00 | 80 | 1009.4 |
| 20260505191803 | 51 | 358 | 2.6 | 6.1 | 0.00 | 0.00 | 0.00 | 80 | 1009.3 |
| 20260505190903 | 51 | 359 | 2.6 | 6.1 | 0.00 | 0.00 | 0.00 | 80 | 1009.3 |
| 20260505190003 | 51 | 3 | 1.7 | 5.2 | 0.00 | 0.00 | 0.00 | 80 | 1009.2 |
| 20260505185403 | 51 | 7 | 2.6 | 7.0 | 0.00 | 0.00 | 0.00 | 80 | 1009.1 |
| 20260505184503 | 51 | 357 | 2.6 | 7.0 | 0.00 | 0.00 | 0.00 | 80 | 1009.0 |
| 20260505183816 | 51 | 353 | 2.6 | 6.1 | 0.00 | 0.00 | 0.00 | 80 | 1009.0 |
| 20260505182916 | 51 | 7 | 2.6 | 7.8 | 0.00 | 0.00 | 0.00 | 80 | 1009.1 |
| 20260505181803 | 51 | 356 | 2.6 | 7.0 | 0.00 | 0.00 | 0.00 | 80 | 1009.0 |
| 20260505180903 | 52 | 356 | 2.6 | 6.1 | 0.00 | 0.00 | 0.00 | 80 | 1009.0 |
| 20260505180003 | 52 | 357 | 1.7 | 5.2 | 0.00 | 0.00 | 0.00 | 80 | 1009.2 |
| 20260505175617 | 52 | 4 | 1.7 | 4.3 | 0.00 | 0.00 | 0.00 | 80 | 1009.2 |
| 20260505174503 | 52 | 360 | 2.6 | 7.0 | 0.00 | 0.00 | 0.00 | 79 | 1009.3 |
| 20260505173603 | 52 | 6 | 2.6 | 7.0 | 0.00 | 0.00 | 0.00 | 79 | 1009.1 |
| 20260505172703 | 52 | 13 | 2.6 | 7.0 | 0.00 | 0.00 | 0.00 | 79 | 1009.1 |
| 20260505171803 | 52 | 8 | 2.6 | 6.1 | 0.00 | 0.00 | 0.00 | 79 | 1009.2 |
| 20260505170903 | 52 | 8 | 2.6 | 5.2 | 0.00 | 0.00 | 0.00 | 79 | 1009.3 |
| 20260505170003 | 53 | 1 | 2.6 | 5.2 | 0.00 | 0.00 | 0.00 | 78 | 1009.4 |
| 20260505165617 | 53 | 360 | 2.6 | 5.2 | 0.00 | 0.00 | 0.00 | 79 | 1009.4 |
| 20260505164716 | 53 | 19 | 1.7 | 4.3 | 0.00 | 0.00 | 0.00 | 78 | 1009.5 |
| 20260505163603 | 53 | 10 | 1.7 | 6.1 | 0.00 | 0.00 | 0.00 | 78 | 1009.5 |
| 20260505162703 | 53 | 13 | 2.6 | 6.1 | 0.00 | 0.00 | 0.00 | 78 | 1009.6 |
| 20260505161803 | 53 | 11 | 2.6 | 7.0 | 0.00 | 0.00 | 0.00 | 78 | 1009.5 |
| 20260505160903 | 53 | 11 | 2.6 | 7.0 | 0.00 | 0.01 | 0.00 | 78 | 1009.4 |
| 20260505152703 | 53 | 11 | 2.6 | 7.0 | 0.00 | 0.01 | 0.00 | 76 | 1009.6 |
| 20260505151803 | 54 | 2 | 2.6 | 7.0 | 0.00 | 0.01 | 0.00 | 76 | 1009.6 |
| 20260505150903 | 54 | 6 | 1.7 | 5.2 | 0.00 | 0.01 | 0.00 | 75 | 1009.6 |
| 20260505124503 | 53 | 7 | 1.7 | 7.8 | 0.00 | 0.01 | 0.00 | 79 | 1010.4 |
| 20260505123603 | 53 | 13 | 0.9 | 3.5 | 0.00 | 0.02 | 0.00 | 80 | 1010.5 |
| 20260505122703 | 53 | 131 | 0.9 | 2.6 | 0.00 | 0.04 | 0.00 | 80 | 1010.6 |
| 20260505121803 | 52 | 43 | 1.7 | 4.3 | 0.00 | 0.09 | 0.00 | 80 | 1010.5 |
| 20260505120903 | 52 | 22 | 1.7 | 4.3 | 0.00 | 0.20 | 0.00 | 80 | 1010.5 |
| 20260505120003 | 52 | 4 | 1.7 | 7.0 | 0.00 | 0.39 | 0.00 | 80 | 1010.5 |
| 20260505115403 | 52 | 8 | 1.7 | 7.0 | 0.00 | 0.52 | 0.00 | 80 | 1010.6 |
| 20260505114503 | 52 | 22 | 1.7 | 4.3 | 0.00 | 0.54 | 0.00 | 81 | 1010.6 |
| 20260505113603 | 52 | 15 | 1.7 | 6.1 | 0.00 | 0.54 | 0.00 | 80 | 1010.5 |
| 20260505112703 | 52 | 10 | 1.7 | 6.1 | 0.00 | 0.54 | 0.00 | 82 | 1010.6 |
| 20260505111803 | 52 | 60 | 0.9 | 3.5 | 0.00 | 0.54 | 0.00 | 82 | 1010.7 |
| 20260505110903 | 52 | 18 | 1.7 | 6.1 | 0.00 | 0.54 | 0.00 | 82 | 1010.8 |
| 20260505110219 | 51 | 10 | 2.6 | 7.8 | 0.00 | 0.54 | 0.00 | 81 | 1010.8 |
| 20260505101803 | 50 | 3 | 1.7 | 7.0 | 0.00 | 0.54 | 0.00 | 83 | 1011.0 |
| 20260505101115 | 50 | 351 | 1.7 | 7.0 | 0.00 | 0.54 | 0.00 | 83 | 1010.9 |
| 20260505100003 | 51 | 12 | 1.7 | 5.2 | 0.00 | 0.54 | 0.00 | 84 | 1011.2 |
| 20260505095403 | 50 | 4 | 2.6 | 7.0 | 0.00 | 0.54 | 0.00 | 83 | 1011.1 |
| 20260505094503 | 50 | 9 | 2.6 | 6.1 | 0.00 | 0.54 | 0.00 | 84 | 1011.2 |
| 20260505093603 | 50 | 22 | 1.7 | 6.1 | 0.00 | 0.54 | 0.00 | 85 | 1011.1 |
| 20260505092703 | 50 | 17 | 2.6 | 7.0 | 0.00 | 0.54 | 0.00 | 85 | 1011.2 |